Location: Plymouth
(43.7490°N, 87.9770°W)
Time: 02:32:07
(UTC-05:00)

Daily predictions for brighter satellites

Satellite Brightness Start Highest point End
(mag) Time Altitude Azimuth Time Altitude Azimuth Time Altitude Azimuth
USA 215 3.8 00:13:10 44° ENE 00:14:40 53° NNE 00:21:00 10° NW
Cosmos 2297 4.4 00:11:25 10° NNW 00:15:44 52° N 00:15:44 52° N
Lacrosse 5 4.0 00:15:46 10° WNW 00:19:52 24° NNW 00:23:59 10° NE
ATLAS CENTAUR R/B 4.2 00:17:45 10° NNW 00:18:29 14° N 00:18:29 14° N
Cosmos 2278 Rocket 3.7 00:28:06 10° NW 00:31:25 29° WNW 00:31:25 29° WNW
ATLAS CENTAUR R/B 3.4 00:24:34 10° NW 00:35:02 55° NNE 00:35:02 55° NNE
COSMOS 2455 3.4 00:37:42 10° NNW 00:42:18 54° NNW 00:42:18 54° NNW
Meteor 1-24 Rocket 4.4 00:45:40 10° N 00:50:04 54° N 00:50:04 54° N
Cosmos 2154 Rocket 4.3 00:55:39 61° NNE 00:55:39 61° NNE 01:00:41 10° N
Cosmos 2219 Rocket 4.2 00:56:04 18° WNW 00:57:49 20° NW 01:01:57 10° N
CZ-2C R/B 3.9 00:56:49 10° N 01:00:52 35° NW 01:00:52 35° NW
SL-16 R/B 3.0 01:03:29 48° N 01:03:29 48° N 01:07:43 10° NNE
Cosmos 2333 Rocket 4.3 01:14:46 16° WNW 01:16:28 18° NW 01:20:20 10° N
SL-8 Rocket 4.3 01:29:59 63° NE 01:29:59 63° NE 01:35:17 10° NNE
Cosmos 1943 Rocket 3.5 01:25:44 10° N 01:30:41 32° NE 01:31:11 32° ENE
Mayak 1.2 01:27:28 10° N 01:28:57 19° NNW 01:28:57 19° NNW
Cosmos 2218 Rocket 4.3 01:35:42 64° NE 01:35:42 64° NE 01:41:22 10° NNE
Cosmos 2237 Rocket 4.3 01:38:56 16° WNW 01:40:21 17° NW 01:44:00 10° N
Cosmos 2369 Rocket 2.8 01:37:05 10° NNW 01:41:42 54° N 01:41:42 54° N
CZ-3A R/B 4.1 01:31:06 10° WNW 01:45:25 62° NNE 01:50:54 10° ESE
CZ-2D R/B 4.4 01:45:58 10° ENE 01:48:25 13° E 01:48:55 13° E
CENTAUR R/B 4.1 01:46:45 10° NW 01:51:45 31° W 01:51:45 31° W
Cosmos 1943 3.8 01:56:08 51° ENE 01:56:08 51° ENE 02:00:31 10° NNE
USA 215 4.2 02:00:30 33° WNW 02:00:30 33° WNW 02:04:04 10° NW
Lacrosse 5 4.5 02:00:54 10° NW 02:04:25 18° N 02:07:54 10° NE
BREEZE-M DEB (TANK) 3.5 02:13:14 76° E 02:13:14 76° E 02:26:19 10° ENE
SL-08 R/B 4.3 02:15:58 43° NE 02:15:58 43° NE 02:19:56 10° N
ADEOS Rocket 3.1 02:16:40 10° NNE 02:21:45 58° E 02:21:45 58° E
Cosmos 2366 rocket 4.2 02:24:31 57° WNW 02:24:31 57° WNW 02:30:25 10° N
Cosmos 1727 Rocket 4.2 02:21:10 10° NNW 02:26:33 58° WNW 02:26:33 58° WNW
Cosmos 2221 4.2 02:41:00 28° E 02:41:00 28° E 02:44:36 10° NNE
Cosmos 2058 4.2 02:37:14 10° N 02:40:03 38° NNE 02:40:03 38° NNE
Cosmos 967 Rocket 4.3 02:42:05 83° SW 02:42:21 88° WNW 02:48:43 10° NNE
Meteor 1-11 4.1 02:38:24 10° N 02:43:53 85° NNW 02:43:53 85° NNW
NPP 3.6 02:42:11 10° NNE 02:47:30 84° ENE 02:47:30 84° ENE
COSMOS 2406 4.5 02:47:05 28° ESE 02:48:05 30° ESE 02:52:58 10° NE
CBERS-1 4.0 02:44:01 10° NNE 02:48:52 77° NE 02:48:52 77° NE
Cosmos 2098 Rocket 4.0 02:52:13 55° SE 02:53:05 62° E 02:58:08 10° NNE
IRS-1C 4.1 02:48:16 10° NNE 02:53:37 70° ESE 02:53:50 69° ESE
Cosmos 1842 Rocket 4.2 02:54:54 52° N 02:54:54 52° N 02:58:13 10° N
Cosmos 1763 Rocket 3.8 02:54:51 54° NW 02:54:51 54° NW 02:59:20 10° NNE
Cosmos 540 Rocket 3.7 02:58:15 59° ESE 02:58:22 59° ESE 03:03:25 10° NNE
Meteor 2-1 Rocket 4.2 02:58:39 63° SE 02:59:17 69° E 03:04:48 10° NNE
Cosmos 1908 4.5 03:03:42 38° ENE 03:03:42 38° ENE 03:06:45 10° NNE
Cosmos 836 Rocket 4.5 03:03:20 71° SE 03:03:36 73° ESE 03:08:54 10° NNE
MOS 1 Rocket 3.8 03:02:57 10° NNE 03:07:08 46° E 03:07:19 46° ESE
Cosmos 2151 4.0 03:06:12 10° NNW 03:08:56 38° NNW 03:08:56 38° NNW
BREEZE-M DEB (TANK) 4.2 03:09:37 46° W 03:11:14 70° NNW 03:27:22 10° ENE
Cosmos 1125 Rocket 3.4 03:08:16 10° NNW 03:13:33 89° E 03:14:14 68° SSE
Cosmos 1242 Rocket 4.1 03:15:31 30° NNW 03:15:31 30° NNW 03:17:31 10° N
Cosmos 1943 Rocket 3.2 03:09:23 10° NW 03:12:38 30° WNW 03:12:38 30° WNW
SL-16 R/B 2.4 03:15:37 52° S 03:17:13 77° WSW 03:23:28 10° NNW
Resurs 1-4 Rocket 2.0 03:13:18 10° NNE 03:18:36 83° ESE 03:19:26 64° S
Cosmos 2123 Rocket 3.9 03:12:21 10° N 03:18:40 89° E 03:20:54 43° S
IRS-P3 4.4 03:14:03 10° N 03:19:12 49° WNW 03:19:28 49° W
Cosmos 1821 Rocket 4.0 03:20:12 54° WSW 03:21:17 63° W 03:27:28 10° N
Cosmos 1656 Rocket 3.5 03:16:48 10° NNW 03:22:31 78° WSW 03:24:03 50° S
ERS-1 4.3 03:18:27 10° NNE 03:23:27 89° WNW 03:24:03 70° SSW
Cosmos 2369 Rocket 4.2 03:22:21 10° WNW 03:23:26 14° WNW 03:23:26 14° WNW
Cosmos 1315 Rocket 4.2 03:22:44 10° N 03:26:30 36° ENE 03:28:33 21° SE
CZ-2D R/B 2.0 03:23:46 10° NNE 03:29:10 83° WNW 03:30:15 58° SSW
AQUA 4.4 03:29:21 10° N 03:33:49 41° WNW 03:33:55 41° WNW
USA 229 DEB 3.7 03:28:08 10° NW 03:35:20 84° SW 03:42:39 10° SSE
USA 229 3.7 03:28:15 10° NW 03:35:26 84° SW 03:42:45 10° SSE
Cosmos 1934 Rocket 3.9 03:34:38 49° SW 03:36:05 62° W 03:42:06 10° N
Cosmos 1633 Rocket 3.8 03:39:29 10° N 03:43:47 52° E 03:46:49 18° SSE
USA 161 4.1 03:47:07 13° ENE 03:47:07 13° ENE 03:48:07 10° NE
Cosmos 292 Rocket 4.0 03:46:25 39° S 03:48:02 64° ESE 03:52:48 10° NNE
Lacrosse 5 3.6 03:44:09 10° NW 03:48:44 33° NNE 03:53:18 10° E
Cosmos 1605 Rocket 4.0 03:47:29 37° SSW 03:50:10 72° W 03:56:35 10° N
ARIANE 5 R/B 2.6 03:45:51 10° N 03:51:01 62° WNW 03:52:31 44° SW
UNKNOWN OBJECT B 2.8 03:54:53 10° N 03:58:58 84° WNW 04:00:00 50° SSW
Cosmos 1400 Rocket 3.3 03:55:47 10° NNW 03:59:08 42° WNW 03:59:08 42° WNW
MOZ.5/SAFIR/RUBIN 5/SL-8 3.8 04:00:54 39° SSW 04:02:23 58° W 04:07:01 10° NNW
Cosmos 1726 2.0 04:03:54 57° SSW 04:04:33 78° W 04:08:17 10° N
ADEOS Rocket 4.3 04:03:19 10° NNW 04:07:13 20° WNW 04:08:42 18° W
Cosmos 1328 Rocket 4.0 04:05:17 20° SSE 04:08:06 58° E 04:12:22 10° NNE
SL-27 R/B 2.3 04:08:12 57° S 04:08:49 85° ESE 04:12:15 10° NNE
ADEOS II 3.1 04:04:14 10° NNE 04:09:14 43° E 04:14:13 10° S
NOSS 3-1 (C) 4.1 04:02:34 10° NW 04:10:09 86° NE 04:18:33 10° SE
Shenzhou-11 Module 4.3 04:14:51 15° SSE 04:14:55 15° SSE 04:16:48 10° ESE
IRS-1D 4.4 04:10:46 10° N 04:15:20 33° WNW 04:17:04 27° WSW
In-Cosmos 22 Rocket 4.2 04:10:33 10° N 04:15:59 77° E 04:21:17 10° SSE
Cosmos 1666 Rocket 3.6 04:12:25 10° NNW 04:16:47 56° W 04:18:57 27° SSW
BREEZE-M DEB (TANK) 4.2 04:20:13 10° SSE 04:20:13 10° SSE 04:20:17 10° SSE
Cosmos 2221 3.7 04:17:53 25° W 04:18:25 26° WNW 04:22:05 10° NNW
Cosmos 1805 Rocket 4.2 04:14:38 10° NNW 04:18:40 34° W 04:19:25 32° WSW
Meteor 2-2 Rocket 4.4 04:15:54 14° S 04:21:03 82° E 04:27:08 10° NNE
ADEOS 4.3 04:19:02 10° N 04:23:48 37° WNW 04:26:04 25° WSW
Cosmos 1802 Rocket 4.2 04:18:21 10° S 04:24:30 74° E 04:30:47 10° NNE
Cosmos 1933 Rocket 4.0 04:21:10 10° N 04:25:38 66° E 04:30:03 10° SSE
Cosmos 2100 Rocket 4.0 04:21:04 13° S 04:26:52 85° W 04:33:17 10° N
Abrixas 1.9 04:29:37 50° W 04:30:09 78° SSW 04:32:46 10° ESE
Cosmos 773 Rocket 4.1 04:26:23 16° SSW 04:30:38 76° ESE 04:35:57 10° NNE
COSMOS 2406 3.8 04:29:09 23° WSW 04:32:11 43° WNW 04:37:37 10° NNE
Okean O Rocket 2.7 04:31:01 10° NNE 04:35:17 44° E 04:39:29 10° S
Cosmos 2285 Rocket 4.4 04:31:45 22° SW 04:35:39 48° WNW 04:41:51 10° N
Cosmos 1833 Rocket 3.9 04:34:05 10° S 04:39:17 40° ESE 04:44:31 10° NE
Cosmos 1151 Rocket 3.1 04:38:37 10° S 04:42:54 80° E 04:47:12 10° N
Meteor 2-10 4.3 04:38:20 14° SSW 04:43:10 64° WNW 04:48:48 10° N
Cosmos 1300 3.6 04:47:35 21° WSW 04:49:21 31° WNW 04:52:48 10° NNW
Cosmos 1980 Rocket 4.1 04:46:50 10° N 04:51:53 33° NE 04:56:54 10° ESE
Sich 1 4.3 04:49:19 10° NW 04:52:46 23° W 04:54:41 17° WSW
Cosmos 2173 Rocket 4.1 04:47:10 10° SSW 04:53:22 59° W 04:59:40 10° N
Cosmos 2278 3.7 04:50:03 10° NNW 04:55:44 84° WSW 05:01:23 10° SSE
Resurs 1-4 Rocket 3.9 04:54:51 10° NNW 04:57:44 15° WNW 05:00:30 10° W
Cosmos 482 Debris 3.4 04:58:04 10° WNW 05:00:27 66° SSW 05:04:13 10° SE
SL-16 R/B 4.2 05:00:43 11° W 05:01:49 11° W 05:03:46 10° WNW
Cosmos 1315 Rocket 4.4 05:00:08 10° NW 05:02:46 17° W 05:04:13 14° WSW
Cosmos 1455 2.2 05:02:06 10° S 05:05:51 84° E 05:09:38 10° N
Cosmos 1697 Rocket 3.1 05:02:19 10° NNW 05:08:00 70° ENE 05:13:39 10° SSE
CZ-2D R/B 4.1 05:06:03 10° NNW 05:08:22 13° NW 05:10:39 10° W
Cosmos 1470 Rocket 4.1 05:05:10 10° NNW 05:09:06 35° W 05:13:03 10° SSW
CZ-4B DEB 4.3 05:04:06 10° NNE 05:09:41 85° ESE 05:15:11 10° SSW
Cosmos 2228 Rocket 3.9 05:08:44 11° SW 05:12:40 33° WNW 05:16:42 10° N
PSLV R/B 3.8 05:15:14 11° W 05:18:08 38° SSW 05:21:12 10° ESE
Cosmos 1515 Rocket 4.4 05:15:27 10° SW 05:19:25 33° WNW 05:23:27 10° N
Tiangong 2 2.5 05:19:17 10° SW 05:22:07 29° SSE 05:24:59 10° E
Cosmos 1869 3.9 05:18:41 10° S 05:22:34 60° E 05:26:31 10° NNE
IRS-1C Rocket 4.1 05:17:51 10° NNE 05:23:09 84° WNW 05:28:24 10° SSW
Cosmos 2082 Rocket 2.2 05:18:21 10° SSW 05:23:58 88° WNW 05:29:39 10° NNE
Cosmos 923 Rocket 4.1 05:19:13 10° SSW 05:24:23 63° WNW 05:29:37 10° NNE
ATLAS 2AS CENTAUR R/B 4.0 05:17:18 10° NNW 05:25:09 51° NE 05:32:29 10° ESE
CZ-4B R/B 4.1 05:23:35 10° NNE 05:27:26 66° E 05:31:07 10° S
Meteor 2-3 Rocket 4.0 05:22:40 10° NNW 05:28:01 45° W 05:33:23 10° SSW
Cosmos 1869 Rocket 3.6 05:26:27 10° N 05:30:58 85° W 05:35:24 10° S
NOSS 3-1 (A) 4.4 05:24:00 10° NW 05:31:19 47° WSW 05:39:15 10° S
CZ-4B R/B 3.8 05:27:14 10° N 05:31:22 39° WNW 05:35:33 10° SW
Lacrosse 5 1.9 05:26:59 10° NW 05:32:01 63° SW 05:37:00 10° SSE
COSMO-SKYMED 1 4.3 05:28:44 10° SE 05:32:46 39° ENE 05:36:50 10° N
Meteor 1-31 Rocket 2.9 05:28:52 10° NNE 05:32:49 83° ESE 05:36:46 10° S
